Flag for Canada Weather past 2 weeks in Laval, Quebec, Canada

Now
16 °F

Low clouds.


Feels Like: 7 °F
Forecast: 15 / 26 °F
Wind: 6 mph from East

Location: Montreal / Mirabel

Current Time: Dec 21, 2014 at 11:14:32 PM

Latest Report: Dec 21, 2014 at 10:00 PM


Visibility: 12 mi

Pressure: 30.42 "Hg

Humidity: 86%

Dew point: 12 °F

Location of LavalLocation

Historic Weather in Laval — Graph

°F

Laval temperature yesterday

Maximum temperature yesterday: 18 °F (at 12:00 PM)
Minimum temperature yesterday: 3 °F (at 7:00 AM)
Average temperature yesterday: 10 °F

Past Weeks' High & Low Weather Summary

 TemperatureHumidityPressure
High34 °F (Dec 10, 8:00 AM)100% (Dec 10, 4:00 PM)30.84 "Hg (Dec 10, 4:00 PM)
Low0 °F (Dec 8, 3:00 AM)37% (Dec 7, 2:00 PM)29.58 "Hg (Dec 11, 1:00 AM)
Average23 °F84%30.10 "Hg
* Reported Dec 6 9:00 PM — Dec 21 9:00 PM, Laval, Weather by CustomWeather, © 2014

Note: Actual official high and low records may vary slightly from our data, if they occured in-between our weather recording intervals... More about our weather records

Advertising

Laval weather history for previous 24 hours

 ConditionsComfort  
Time TempWeatherWind HumidityBarometerVisibility
9:00 PM
Dec 21
16 °FLight snow. Mostly cloudy.3 mph86%30.42 "Hg12 mi
8:00 PM18 °FLight snow. Mostly cloudy.6 mph79%30.42 "Hg10 mi
7:00 PM18 °FMostly cloudy.6 mph79%30.42 "Hg10 mi
6:00 PM18 °FLight snow. Mostly cloudy.6 mph79%30.40 "Hg10 mi
5:00 PM18 °FLight snow. Mostly cloudy.5 mph79%30.39 "Hg10 mi
4:00 PM18 °FLight snow. Overcast.5 mph86%30.39 "Hg10 mi
3:00 PM18 °FLight snow. More clouds than sun.6 mph79%30.38 "Hg10 mi
2:00 PM18 °FLight snow. Overcast.5 mph79%30.37 "Hg12 mi
1:00 PM18 °FLight snow. More clouds than sun.5 mph79%30.38 "Hg10 mi
12:00 PM16 °FLight snow. Overcast.6 mph93%30.39 "Hg6 mi
11:00 AM16 °FLight snow. Overcast.5 mph93%30.41 "Hg6 mi
10:00 AM16 °FSnow. Overcast.5 mph86%30.41 "Hg6 mi
9:00 AM14 °FLight snow. Low clouds.8 mph92%30.40 "Hg8 mi
8:00 AM14 °FLow clouds.10 mph92%30.39 "Hg10 mi
7:00 AM16 °FLow clouds.8 mph86%30.39 "Hg10 mi
6:00 AM16 °FLow clouds.7 mph86%30.38 "Hg10 mi
5:00 AM14 °FLow clouds.5 mph85%30.37 "Hg15 mi
4:00 AM12 °FLow clouds.3 mph85%30.37 "Hg8 mi
3:00 AM12 °FIce fog.3 mph85%30.38 "Hg5 mi
2:00 AM10 °FIce fog.2 mph92%30.38 "Hg2 mi
1:00 AM10 °FIce fog.3 mph92%30.37 "Hg1 mi
12:00 AM10 °FIce fog.3 mph85%30.37 "Hg1 mi
11:00 PM
Dec 20
10 °FIce fog.3 mph85%30.37 "Hg1 mi
Weather by CustomWeather, © 2014

See weather overviewHow to use our weather pages